STARLINK-5516, 57253

Orbit data source: Space-Track

STARLINK-5516, 57253 is a payload satellite owned by SpaceX/Seattle (US) in LEO that was launched on Fri, 07 Jul 2023 UTC via an FALCON 9 launch vehicle from the Air Force Western Test Range (AFWTR). Payload-class satellites include a variety of spacecraft equipped with specific instruments for various scientific and technological missions. These include communications satellites like Starlink; space stations such as the ISS; scientific satellites like the Hubble; Earth observation satellites from companies like Planet Labs, Umbra, and HawkEye 360; GPS; miniature CubeSats for education and research; and military/defense satellites.

Loading next visibility...
Identifier
57253, 2023-094AM
Orbit
LEO
Country
Flag of USUS
Related business
Manufacturer
SpaceX/Seattle
Mission
Operational Commercial Communications
Bus & Motor
STARLINK, Unknown motor
Mass
305 kg wet, ~290 kg dry
Launch date (UTC)
2023-07-07 (3 years ago)
Launch vehicle
FALCON 9
Launch site
Air Force Western Test Range (AFWTR)
Object type
Payload
Rocket body
Debris
Shape & HBR
Box + 1 Pan, 10.1 m
Radar Cross Section
11.087 m², Large (>1 m²)

Expand to show TLE details & history
Last TLE update: 2 days ago

TLE from 2 days ago
0 STARLINK-5516
1 57253U 23094AM  26171.03433310  .00000573  00000-0  30342-4 0  9995
2 57253  43.0030 161.7797 0001588 279.8583  80.2089 15.27579479162895
Epoch: 2026-06-20T00:49Z
TLE epoch observation values (Epoch: 2026-06-20T00:49:26.379Z)
Latitude
-0.00006°
Longitude
-118.83503°
Altitude
482.641 km
Speed
7.626 km/s
True Right ascension
10h 47m 07s
True Declination
0° 00' 00"
Sunlit
Object was in daylight at epoch
Visualization orbit readout
Latitude
Unknown
Longitude
Unknown
Altitude
Unknown
Speed
Unknown
Apparent Right ascension
Unknown
Apparent Declination
Unknown
Sunlit
N/A
Visualization observer readout
Local Sidereal Time
21:27:14
Azimuth
Unknown
Elevation
Unknown
Doppler factor
Unknown
Orbital elements
Apogee altitude
486.085 km
Perigee altitude
483.905 km
Semi-major axis
6,863.132 km
Eccentricity
0.00016
Inclination
43.003°
RAAN
161.7797°
Arg. of periapsis
279.8583°
True anomaly
80.22683°
Mean anomaly
80.2089°
Eccentric anomaly
80.21787°
Mean motion
3.81733 °/min
Orbital period
94.31 mins
BSTAR
0.000030342
Loading maneuver chart data...
Computing Atmospheric mass density...
Loading historical data...
Loading historical data...
Loading historical data...
Loading historical data...
Loading historical data...
Loading historical data...
Loading historical data...

Documentation

Showing up to 5 results
|